Windsor, Ontario

3:27 AM EDT on October 18, 2017 (GMT -0400)
Windsor

Weather History for CYQG - October, 2013

Change the Weather History Date:

Tuesday, October 22, 2013

  Actual Average Record
Temperature  
Mean Temperature 43 °F -  
Max Temperature 50 °F 50 °F 73 °F (2007)
Min Temperature 36 °F 36 °F 30 °F (1997)
Degree Days  
Heating Degree Days 22    
Moisture  
Dew Point 30 °F    
Average Humidity 58    
Maximum Humidity 70    
Minimum Humidity 40    
Precipitation  
Precipitation 0.00 in 0.09 in - ()
Sea Level Pressure  
Sea Level Pressure 29.90 in    
Wind  
Wind Speed 9 mph ()    
Max Wind Speed 16 mph    
Max Gust Speed 25 mph    
Visibility 15.0 miles    
Events      
Averages and records for this station are not official NWS values.
T = Trace of Precipitation, MM = Missing Value Source: Averaged Metar Reports

Daily Weather History Graph

Daily Weather History Graph

Search for Another Location

Airport or City:

Trip Planner

Search our weather history database for the weather conditions in past years. The results will help you decide how hot, cold, wet, or windy it might be!

Date:

Astronomy

Oct. 22, 2013 Rise Set
Actual Time 7:53 AM EDT 6:38 PM EDT
Civil Twilight 7:24 AM EDT 7:07 PM EDT
Nautical Twilight 6:51 AM EDT 7:40 PM EDT
Astronomical Twilight 6:19 AM EDT 8:12 PM EDT
Moon 9:15 PM EDT (10/22) 11:23 AM EDT (10/22)
Length of Visible Light 11h 42m
Length of Day
10h 45m
Waning Gibbous, 87% of the Moon is Illuminated
Oct 22
Waning Gibbous
Oct 26
Last Quarter
Nov 3
New
Nov 10
First Quarter
Nov 17
Full

Hourly Weather History & Observations

Time (EDT) Temp. Windchill Dew Point Humidity Pressure Visibility Wind Dir Wind Speed Gust Speed Precip Events Conditions
12:00 AM 42.8 °F 38.0 °F 33.8 °F 70% 29.86 in 15.0 mi WSW 8.1 mph - N/A   Partly Cloudy
1:00 AM 42.8 °F 36.6 °F 33.8 °F 70% 29.86 in 15.0 mi WSW 11.5 mph - N/A   Partly Cloudy
2:00 AM 43 °F - 35 °F 63% 29.88 in 15 mi West 9.2 mph - -   Partly Cloudy
2:00 AM 42.8 °F 37.5 °F 33.8 °F 70% 29.88 in 15.0 mi West 9.2 mph - N/A   Mostly Cloudy
3:00 AM 42.8 °F 35.8 °F 28.4 °F 57% 29.89 in 15.0 mi West 13.8 mph - N/A   Mostly Cloudy
4:00 AM 41.0 °F 35.8 °F 26.6 °F 57% 29.89 in 15.0 mi West 8.1 mph - N/A   Partly Cloudy
5:00 AM 39.2 °F 33.0 °F 24.8 °F 56% 29.90 in 15.0 mi West 9.2 mph - N/A   Partly Cloudy
6:00 AM 37.4 °F 32.1 °F 28.4 °F 70% 29.91 in 15.0 mi SW 6.9 mph - N/A   Partly Cloudy
7:00 AM 37.4 °F 30.3 °F 28.4 °F 70% 29.92 in 15.0 mi WSW 10.4 mph - N/A   Partly Cloudy
8:00 AM 36 °F - 28 °F 64% 29.92 in 15 mi WSW 9.2 mph - -   Scattered Clouds
8:00 AM 37.4 °F 30.3 °F 28.4 °F 70% 29.92 in 15.0 mi WSW 10.4 mph - N/A   Partly Cloudy
9:00 AM 37.4 °F 29.8 °F 28.4 °F 70% 29.94 in 15.0 mi WSW 11.5 mph - N/A   Partly Cloudy
10:00 AM 39.2 °F 31.6 °F 30.2 °F 70% 29.95 in 15.0 mi WSW 12.7 mph - N/A   Scattered Clouds
11:00 AM 42.8 °F 35.1 °F 30.2 °F 61% 29.94 in 15.0 mi WSW 16.1 mph 21.9 mph N/A   Partly Cloudy
12:00 PM 44.6 °F 38.4 °F 28.4 °F 53% 29.94 in 15.0 mi West 12.7 mph 25.3 mph N/A   Mostly Cloudy
1:00 PM 46.4 °F 40.4 °F 30.2 °F 53% 29.93 in 15.0 mi West 13.8 mph 25.3 mph N/A   Mostly Cloudy
2:00 PM 47 °F - 31 °F 41% 29.91 in 15 mi WSW 11.5 mph - -   Mostly Cloudy
2:00 PM 46.4 °F 41.9 °F 30.2 °F 53% 29.91 in 15.0 mi WSW 9.2 mph 17.3 mph N/A   Mostly Cloudy
3:00 PM 48.2 °F - 30.2 °F 50% 29.89 in 15.0 mi WNW 6.9 mph - N/A   Mostly Cloudy
4:00 PM 50.0 °F - 30.2 °F 47% 29.88 in 15.0 mi WSW 10.4 mph 20.7 mph N/A   Mostly Cloudy
5:00 PM 48.2 °F - 28.4 °F 46% 29.88 in 15.0 mi West 10.4 mph - N/A   Mostly Cloudy
6:00 PM 48.2 °F - 28.4 °F 46% 29.89 in 15.0 mi WSW 9.2 mph - N/A   Overcast
7:00 PM 48.2 °F - 30.2 °F 50% 29.88 in 15.0 mi WSW 4.6 mph - N/A   Overcast
8:00 PM 47 °F - 30 °F 40% 29.88 in 15 mi West 3.5 mph - -   Overcast
8:00 PM 46.4 °F 45.2 °F 30.2 °F 53% 29.88 in 15.0 mi West 3.5 mph - N/A   Overcast
9:00 PM 46.4 °F 43.5 °F 30.2 °F 53% 29.89 in 15.0 mi West 5.8 mph - N/A   Overcast
10:00 PM 44.6 °F 40.2 °F 30.2 °F 57% 29.89 in 15.0 mi West 8.1 mph - N/A   Mostly Cloudy
11:00 PM 44.6 °F 40.2 °F 30.2 °F 57% 29.89 in 15.0 mi West 8.1 mph - N/A   Mostly Cloudy